Toluca Jose Maria, Mexico

11:17 AM CST on December 13, 2017 (GMT -0600)
Lic Adolfo Lopez Mateos International

Weather History for MMTO - July, 2013

Change the Weather History Date:

Tuesday, July 2, 2013

  Actual Average Record
Temperature  
Mean Temperature 58 °F -  
Max Temperature 69 °F 67 °F 75 °F (2005)
Min Temperature 46 °F 48 °F 44 °F (1996)
Degree Days  
Heating Degree Days 8    
Growing Degree Days 8 (Base 50)    
Moisture  
Dew Point 46 °F    
Average Humidity 70    
Maximum Humidity 93    
Minimum Humidity 35    
Precipitation  
Precipitation 0.00 in - - ()
Sea Level Pressure  
Sea Level Pressure 30.21 in    
Wind  
Wind Speed 4 mph ()    
Max Wind Speed 18 mph    
Max Gust Speed -    
Visibility 5.6 miles    
Events Fog , Rain , Thunderstorm    
Averages and records for this station are not official NWS values.
T = Trace of Precipitation, MM = Missing Value Source: Averaged Metar Reports

Daily Weather History Graph

Daily Weather History Graph

Search for Another Location

Airport or City:

Trip Planner

Search our weather history database for the weather conditions in past years. The results will help you decide how hot, cold, wet, or windy it might be!

Date:

Astronomy

Jul. 02, 2013 Rise Set
Actual Time 7:04 AM CDT 8:20 PM CDT
Civil Twilight 6:39 AM CDT 8:44 PM CDT
Nautical Twilight 6:10 AM CDT 9:13 PM CDT
Astronomical Twilight 5:41 AM CDT 9:43 PM CDT
Moon 2:46 AM CDT (7/2) 3:53 PM CDT (7/2)
Length of Visible Light 14h 05m
Length of Day
13h 16m
Waning Crescent, 26% of the Moon is Illuminated
Jul 2
Waning Crescent
Jul 8
New
Jul 15
First Quarter
Jul 22
Full
Jul 29
Last Quarter

Hourly Weather History & Observations

Time (CDT) Temp. Dew Point Humidity Pressure Visibility Wind Dir Wind Speed Gust Speed Precip Events Conditions
12:45 AM 51.8 °F 44.6 °F 76% 29.85 in 8.0 mi East 4.6 mph - N/A   Scattered Clouds
1:45 AM 50.0 °F 46.4 °F 87% 30.40 in 8.0 mi East 4.6 mph - N/A   Scattered Clouds
2:45 AM 48.2 °F 44.6 °F 87% 30.38 in 8.0 mi Calm Calm - N/A   Scattered Clouds
3:45 AM 50.0 °F 46.4 °F 87% 29.80 in 8.0 mi Calm Calm - N/A   Scattered Clouds
4:45 AM - - N/A% 30.36 in 8.0 mi Calm Calm - N/A   Scattered Clouds
5:45 AM 46.4 °F 41.0 °F 81% 30.37 in 8.0 mi Calm Calm - N/A   Scattered Clouds
6:45 AM 46.4 °F 41.0 °F 81% 29.86 in 1.0 mi Calm Calm - N/A Fog Fog
7:30 AM 46.4 °F 42.8 °F 87% 30.40 in 0.2 mi Calm Calm - N/A Fog Fog
7:52 AM 46.4 °F 44.6 °F 93% 30.40 in 0.2 mi Calm Calm - N/A Fog Fog
8:25 AM 46.4 °F 44.6 °F 93% 30.41 in 3.0 mi Calm Calm - N/A   Haze
8:54 AM 48.2 °F 44.6 °F 87% 30.40 in 3.0 mi Calm Calm - N/A   Haze
9:41 AM 53.6 °F 46.4 °F 77% 29.88 in 4.0 mi Calm Calm - N/A   Scattered Clouds
10:50 AM 60.8 °F 46.4 °F 59% 30.40 in 5.0 mi Calm Calm - N/A   Mostly Cloudy
11:42 AM 64.4 °F 44.6 °F 49% 30.39 in 6.0 mi SW 3.5 mph - N/A   Mostly Cloudy
12:47 PM 68.0 °F 42.8 °F 40% 29.80 in 7.0 mi NNE 5.8 mph - N/A   Mostly Cloudy
1:41 PM 69.8 °F 44.6 °F 40% 30.36 in 7.0 mi South 5.8 mph - N/A   Mostly Cloudy
2:43 PM 69.8 °F 41.0 °F 35% 30.34 in 8.0 mi East 5.8 mph - N/A   Mostly Cloudy
3:40 PM 69.8 °F 41.0 °F 35% 29.76 in 10.0 mi NE 18.4 mph - N/A   Mostly Cloudy
4:42 PM 68.0 °F 48.2 °F 49% 30.31 in 8.0 mi SSW 11.5 mph - N/A   Mostly Cloudy
5:41 PM 64.4 °F 42.8 °F 45% 30.29 in 8.0 mi WSW 5.8 mph - N/A   Mostly Cloudy
6:15 PM 64.4 °F 51.8 °F 64% 30.30 in 3.0 mi East 18.4 mph - N/A Rain , Thunderstorm Thunderstorms and Rain
6:47 PM 57.2 °F 50.0 °F 77% 29.86 in 5.0 mi SSE 15.0 mph - N/A Rain , Thunderstorm Light Thunderstorms and Rain
7:44 PM 59.0 °F 50.0 °F 72% 30.33 in 5.0 mi South 9.2 mph - N/A   Mostly Cloudy
8:44 PM 57.2 °F 48.2 °F 72% 30.36 in 5.0 mi South 10.4 mph - N/A   Mostly Cloudy
9:47 PM 55.4 °F 48.2 °F 77% 29.90 in 5.0 mi SE 6.9 mph - N/A   Mostly Cloudy
10:45 PM 53.6 °F 50.0 °F 88% 30.41 in 5.0 mi SSW 5.8 mph - N/A   Mostly Cloudy
11:42 PM 53.6 °F 50.0 °F 88% 30.42 in 4.0 mi South 5.8 mph - N/A   Mostly Cloudy